Wetbulb
44.52 41.75 38.18 39.13 40.63 40.44 39.62 38.23 37.29 38.43 42.82 39.98 39.66 39.59 42.18 46.35 45.07 43.95 43.63 44.48 45.48 47.70 50.63 50.84 52.20 52.89 52.99 52.47 56.94 58.91 58.19 59.15 59.64 58.92 58.59 60.08 59.47 60.42 60.36 60.90 60.91 60.44 60.55 60.46
41.43 37.13 40.46 42.60 43.02 42.20 40.89 36.76 35.35 39.67 42.08 39.75 38.38 37.87 40.57 42.59 42.60 43.96 44.50 44.87 46.76 48.17 48.66 50.04 50.37 50.71 51.25 52.65 53.89 58.70 58.80 58.88 59.60 59.93 59.57 59.61 60.32 60.80 60.92 60.44 60.27 60.52 60.31 60.29
37.01 38.14 42.66 41.73 40.38 39.76 39.04 37.56 35.98 37.28 39.30 38.94 36.37 36.09 37.00 40.46 41.20 43.07 44.13 45.58 46.93 47.40 47.95 48.92 48.98 49.80 50.36 50.57 51.53 56.25 59.53 59.36 59.23 60.24 59.82 58.26 57.79 57.31 57.60 59.03 59.50 59.98 60.40 60.31
39.58 42.63 41.57 39.56 38.99 40.30 35.90 40.77 40.83 39.25 34.24 29.25 36.08 27.08 32.63 37.39 39.59 40.73 41.17 40.70 43.24 45.95 47.45 48.48 48.23 48.29 48.54 49.65 49.94 52.04 57.67 59.63 59.32 59.81 59.21 58.70 58.27 57.18 58.65 59.39 59.89 60.16 60.09 60.27
34.37 38.35 37.69 38.55 38.98 40.86 37.88 41.20 40.34 38.74 35.45 31.75 29.69 28.39 30.53 34.60 34.61 38.01 39.82 41.36 41.72 43.49 45.19 46.23 46.89 48.14 47.81 48.77 48.66 49.93 51.65 56.74 59.41 59.25 59.80 58.93 58.39 58.99 59.38 59.07 58.70 59.30 59.78 59.89
36.31 41.25 39.91 39.34 41.35 41.25 42.44 40.50 38.26 37.81 34.03 28.49 30.81 29.21 26.87 31.62 34.80 36.58 39.50 43.22 44.72 45.13 43.55 43.51 45.06 45.47 44.99 44.34 44.55 45.65 50.17 52.79 56.62 58.79 59.24 59.08 58.63 58.68 58.29 58.17 58.03 58.58 58.99 59.26
37.05 36.67 39.72 41.44 37.47 39.21 41.24 37.06 24.25 22.02 27.26 23.96 30.37 29.60 32.48 35.86 39.42 38.84 41.34 41.82 43.31 43.16 41.04 42.30 43.18 43.75 44.44 44.40 44.45 45.03 45.41 46.30 49.91 55.35 58.46 59.40 59.19 59.05 58.63 58.67 58.56 58.46 58.33 57.99
28.36 27.71 36.43 40.62 38.91 35.53 36.03 36.17 23.85 16.72 20.72 23.64 30.32 26.80 31.56 39.22 41.60 42.58 41.73 41.84 41.67 39.08 41.42 42.46 42.69 43.05 43.88 45.19 45.06 44.48 44.32 45.13 46.09 47.33 52.82 58.04 60.02 60.06 59.79 59.78 59.77 59.49 59.24 59.07
27.38 27.10 36.19 38.95 41.59 40.61 35.76 32.85 35.61 27.44 23.91 24.13 26.82 30.56 36.52 39.87 39.93 41.24 41.25 41.21 39.43 39.61 41.64 44.02 44.04 44.09 44.23 44.85 45.22 44.39 44.19 44.52 45.48 45.68 46.26 50.23 57.25 59.34 60.22 60.39 60.44 60.26 60.33 60.00
33.08 26.74 34.72 37.98 40.70 40.07 38.12 39.37 31.92 27.81 19.09 19.91 23.96 25.78 29.60 34.29 37.02 40.04 39.73 41.71 40.81 40.24 41.99 43.91 43.97 44.02 44.23 44.16 44.10 44.54 45.36 45.34 45.00 45.06 45.08 46.27 47.73 52.73 58.20 60.12 60.20 60.38 60.76 60.62
35.25 32.01 30.46 36.37 35.07 34.79 35.14 34.07 34.32 33.03 27.21 21.86 18.83 23.69 32.44 36.70 38.46 37.30 38.54 40.79 40.22 41.11 42.27 42.46 42.51 42.00 41.50 41.06 40.84 41.47 42.93 43.83 44.19 44.52 44.03 43.76 44.98 46.55 49.28 52.48 57.81 60.25 60.70 60.64
37.26 33.18 25.20 30.74 36.16 38.43 38.65 36.10 35.71 29.35 24.86 25.97 26.63 25.97 36.99 36.79 38.18 38.40 38.62 40.21 41.80 42.02 41.37 40.18 39.34 38.78 38.60 38.53 39.05 39.28 40.32 40.64 41.85 41.79 42.10 42.38 43.58 44.55 45.68 47.89 51.34 55.52 59.45 60.42
37.50 30.64 23.72 22.38 31.60 34.25 34.05 36.17 36.33 34.37 31.09 27.29 22.96 27.76 37.21 35.84 38.22 39.07 40.49 41.06 40.95 40.15 37.97 37.68 37.63 37.12 37.00 37.12 37.37 37.34 37.81 37.64 38.13 38.52 40.15 41.60 41.84 42.15 43.74 46.06 48.49 52.40 56.69 59.21
40.89 31.68 28.79 23.70 27.33 32.18 31.15 33.45 35.40 34.60 28.78 28.62 28.95 31.43 33.60 35.41 35.49 37.97 39.92 40.23 40.16 38.43 37.52 36.86 36.37 36.08 35.84 36.10 35.74 35.81 35.43 35.96 36.68 37.60 39.99 40.67 41.19 42.02 43.24 45.15 47.45 49.68 52.30 55.71
38.05 29.57 30.87 31.08 31.40 31.78 31.72 32.83 33.54 32.16 33.57 28.71 32.13 31.61 35.76 36.87 39.08 37.05 40.36 39.96 39.02 37.49 36.74 36.20 35.52 34.76 34.25 34.38 34.52 34.20 33.83 34.50 35.81 37.24 37.45 37.04 38.05 39.37 40.61 41.79 43.80 46.48 48.24 50.77
38.41 22.85 31.06 23.42 31.43 31.30 27.61 32.19 32.99 34.16 34.40 33.71 34.25 32.81 40.05 38.41 37.70 37.64 40.61 39.97 38.03 37.17 35.83 35.91 35.14 34.48 33.61 33.56 33.37 32.63 32.05 32.94 35.16 34.13 34.00 34.55 35.00 35.59 36.74 37.72 38.51 41.60 44.33 47.39
35.19 30.35 25.64 25.15 30.03 27.73 26.81 30.19 31.41 32.57 34.03 35.03 31.04 36.09 37.95 36.82 38.50 39.45 39.96 39.25 37.52 35.96 35.11 34.10 32.99 32.45 32.26 32.05 32.22 30.06 30.75 33.19 32.07 31.96 32.22 32.63 33.27 33.35 34.00 34.77 36.12 37.30 39.73 42.85
34.13 33.15 31.31 24.82 26.72 21.37 30.80 33.98 35.82 33.23 34.88 36.18 37.17 38.31 38.31 37.99 40.07 38.17 36.27 37.34 34.78 34.53 33.40 32.32 31.16 30.56 30.80 30.87 29.90 29.58 30.88 31.39 31.12 30.79 31.10 31.94 32.54 32.78 33.35 34.00 34.60 35.30 35.74 38.34
37.58 34.03 30.26 25.48 25.27 24.37 28.27 29.09 29.47 29.44 31.29 36.46 36.64 38.52 39.54 37.52 34.68 33.59 34.53 34.46 34.02 33.06 32.26 31.28 30.46 30.62 29.76 28.74 28.16 28.21 30.23 30.28 29.74 29.39 29.76 30.76 31.58 31.83 32.46 32.76 33.79 34.91 35.12 35.49
34.97 36.89 31.66 24.37 23.58 18.33 29.86 31.99 34.66 33.61 26.09 34.95 36.96 37.36 37.51 34.98 32.11 34.79 33.72 33.14 32.04 31.60 30.86 29.18 28.61 29.31 28.33 27.43 27.28 27.99 28.61 29.06 28.19 28.30 28.67 29.91 31.30 32.04 32.18 32.88 33.52 34.39 34.62 34.46
30.24 30.89 28.19 28.41 23.12 24.38 28.59 31.49 35.30 23.29 27.13 33.65 34.53 34.34 34.26 33.98 35.51 32.99 31.99 30.50 30.56 29.47 28.69 27.18 26.07 26.01 26.15 26.83 25.89 25.54 26.49 26.62 27.35 27.78 27.66 28.78 30.67 31.94 32.77 33.03 33.69 34.03 34.29 34.33
28.45 27.68 26.99 28.18 24.60 21.16 31.45 31.67 30.76 32.60 31.74 33.42 31.88 31.41 30.89 30.18 29.85 29.67 28.54 27.63 27.21 26.53 26.42 26.39 24.64 24.94 25.13 24.77 23.93 23.20 23.28 23.70 25.53 25.57 25.84 27.46 29.16 30.82 32.58 32.95 33.36 33.57 33.97 34.22
27.23 30.45 28.07 30.21 28.51 31.88 32.00 33.46 34.09 33.46 32.86 32.07 31.04 30.02 30.49 29.22 27.99 27.33 25.88 25.14 25.20 24.70 25.58 24.48 22.86 23.13 22.97 21.92 21.61 20.01 20.79 21.37 21.25 19.77 20.92 24.52 27.56 30.11 32.50 32.48 32.60 32.92 33.62 33.93
29.62 31.32 29.82 30.46 32.45 31.18 32.43 30.67 31.56 31.47 31.34 30.69 29.58 28.75 28.88 27.15 26.88 26.05 25.59 24.90 23.74 23.24 21.85 21.44 21.09 19.86 18.99 18.61 18.54 18.04 18.81 17.95 15.17 15.17 17.55 20.95 24.65 27.55 30.26 32.37 32.70 32.38 32.74 32.30
28.63 31.05 27.93 28.27 29.13 29.84 29.44 29.76 29.67 28.21 28.45 27.05 25.75 26.00 25.87 26.06 25.03 24.34 22.58 21.80 21.18 20.78 19.53 19.23 17.62 16.62 15.02 15.16 14.49 14.13 14.94 12.27 11.90 13.57 15.79 18.36 20.75 22.75 26.52 30.22 32.28 32.33 32.71 32.46
28.28 29.06 30.26 29.78 31.92 31.95 30.54 30.12 29.18 27.87 25.74 24.82 23.61 21.67 21.70 23.41 21.81 20.69 19.36 18.91 17.91 16.26 16.15 14.37 13.46 12.19 11.11 10.55 10.28 10.15 6.92 5.37 6.90 10.19 13.33 14.37 16.26 18.46 23.18 26.83 29.44 34.23 35.12 34.41
MSLP
1019.60 1019.85 1019.40 1019.84 1020.02 1020.12 1020.22 1020.44 1020.36 1019.59 1018.92 1018.97 1018.64 1018.28 1017.75 1017.11 1017.04 1016.76 1016.77 1016.26 1015.56 1014.92 1014.07 1013.77 1013.63 1013.64 1013.67 1013.74 1013.85 1013.93 1014.10 1014.29 1015.01 1015.69 1016.24 1016.77 1016.73 1016.90 1017.08 1017.00 1017.26 1017.73 1018.12 1018.63
1020.19 1019.67 1020.03 1020.28 1020.56 1020.67 1020.58 1020.57 1020.55 1020.00 1019.17 1019.33 1018.81 1018.21 1017.57 1017.00 1016.49 1016.18 1015.99 1015.56 1014.67 1014.11 1013.69 1013.35 1013.20 1013.16 1013.28 1013.27 1013.23 1013.28 1013.31 1013.55 1014.00 1014.51 1014.79 1015.31 1015.67 1016.03 1016.25 1016.69 1016.93 1016.83 1017.18 1017.58
1019.81 1019.57 1019.62 1020.41 1020.58 1020.82 1020.54 1020.45 1020.58 1020.42 1019.87 1019.43 1019.15 1017.66 1017.14 1016.40 1015.97 1015.56 1014.97 1014.20 1013.87 1013.31 1012.98 1012.79 1012.78 1012.67 1012.67 1012.86 1012.83 1012.83 1012.79 1013.03 1013.25 1013.55 1014.37 1014.95 1015.28 1015.69 1016.01 1015.95 1016.13 1016.07 1016.44 1016.79
1019.80 1019.53 1019.87 1020.26 1020.26 1020.46 1020.34 1020.04 1020.39 1020.72 1020.86 1020.64 1020.11 1018.60 1017.22 1016.55 1015.81 1015.16 1014.26 1013.90 1013.32 1012.59 1012.36 1012.20 1012.25 1012.21 1012.26 1012.31 1012.50 1012.55 1012.50 1012.52 1012.74 1013.13 1013.73 1013.98 1014.06 1014.44 1014.23 1014.39 1014.94 1015.29 1015.62 1015.89
1019.61 1019.49 1019.81 1019.74 1019.55 1019.99 1019.85 1019.91 1020.35 1020.72 1020.98 1021.16 1020.94 1020.89 1017.04 1016.56 1015.94 1014.90 1013.59 1013.32 1012.74 1012.08 1011.94 1011.88 1012.02 1012.04 1011.97 1012.25 1012.31 1012.25 1012.21 1012.25 1012.35 1012.82 1012.92 1013.13 1013.45 1013.42 1013.43 1014.00 1014.26 1014.51 1014.79 1014.99
1019.63 1019.27 1019.25 1019.16 1019.28 1019.41 1019.49 1019.96 1020.46 1021.32 1021.90 1021.66 1021.09 1021.18 1017.21 1016.31 1014.88 1014.01 1013.25 1013.04 1012.57 1011.92 1011.67 1011.83 1011.94 1011.99 1012.32 1012.50 1012.32 1012.31 1012.26 1012.22 1012.29 1012.43 1012.62 1012.79 1012.78 1012.71 1013.07 1013.35 1013.52 1013.65 1013.92 1014.28
1019.65 1019.25 1018.92 1018.68 1019.00 1019.19 1019.47 1020.30 1021.27 1022.18 1022.37 1021.27 1020.70 1020.70 1016.23 1015.58 1014.31 1013.93 1013.27 1012.87 1012.60 1012.40 1012.23 1012.45 1012.60 1012.65 1012.70 1012.83 1012.80 1012.68 1012.52 1012.68 1012.61 1012.49 1012.39 1012.34 1012.35 1012.54 1012.50 1012.45 1012.61 1012.82 1013.13 1013.43
1019.44 1019.09 1018.54 1018.14 1018.10 1018.55 1019.10 1020.07 1020.60 1021.65 1022.13 1021.57 1021.11 1019.39 1015.83 1014.20 1013.42 1012.99 1012.71 1012.69 1012.81 1012.96 1012.68 1012.83 1012.95 1013.14 1013.21 1013.24 1013.03 1013.08 1013.18 1013.10 1012.80 1012.63 1012.45 1012.12 1011.97 1011.86 1011.78 1011.70 1011.57 1011.75 1011.95 1012.02
1018.67 1018.25 1017.41 1017.40 1017.63 1017.83 1018.69 1019.26 1019.69 1021.14 1022.12 1021.81 1020.22 1017.84 1015.36 1013.88 1013.26 1012.57 1012.62 1012.88 1013.10 1013.26 1013.12 1013.11 1013.29 1013.62 1013.71 1013.82 1013.70 1013.61 1013.49 1013.32 1013.20 1012.90 1012.40 1012.12 1011.78 1011.40 1011.00 1010.86 1010.81 1010.75 1010.76 1010.92
1017.82 1017.99 1017.28 1017.19 1017.24 1017.27 1017.60 1018.41 1019.70 1020.63 1021.67 1021.51 1019.40 1017.86 1015.27 1013.77 1013.09 1012.69 1012.53 1012.79 1013.30 1013.55 1013.64 1013.67 1014.11 1014.39 1014.43 1014.26 1014.13 1013.94 1013.77 1013.59 1013.37 1013.05 1012.62 1012.13 1011.84 1011.54 1011.02 1010.51 1010.15 1009.88 1009.73 1009.97
1017.71 1017.69 1017.64 1017.36 1016.60 1016.57 1017.67 1017.96 1018.49 1019.11 1019.99 1019.67 1018.92 1016.45 1014.20 1013.18 1012.65 1012.35 1012.39 1012.77 1013.18 1013.90 1014.29 1014.49 1014.71 1014.97 1015.13 1015.02 1014.81 1014.63 1014.40 1014.17 1013.80 1013.35 1012.88 1012.42 1011.88 1011.45 1010.94 1010.40 1009.75 1009.21 1009.00 1009.11
1017.06 1017.48 1017.89 1017.10 1016.58 1016.26 1016.38 1016.52 1017.50 1018.01 1018.82 1018.79 1017.94 1014.90 1013.50 1013.21 1012.69 1012.54 1012.68 1013.26 1013.43 1013.96 1014.59 1014.98 1015.17 1015.39 1015.48 1015.54 1015.18 1015.13 1015.06 1014.80 1014.52 1014.01 1013.23 1012.61 1012.02 1011.36 1010.70 1010.20 1009.56 1009.07 1008.44 1008.33
1015.90 1016.90 1017.82 1017.52 1017.21 1016.43 1015.97 1016.07 1016.69 1017.22 1017.56 1017.38 1017.26 1014.34 1013.39 1013.42 1013.11 1013.35 1013.30 1013.64 1014.11 1014.66 1015.05 1015.41 1015.57 1015.90 1016.00 1016.06 1016.05 1015.92 1015.57 1015.30 1014.92 1014.35 1013.64 1012.91 1012.24 1011.62 1010.90 1010.26 1009.49 1008.86 1008.38 1007.83
1015.19 1015.87 1016.14 1015.56 1015.17 1015.44 1015.85 1015.57 1015.86 1016.47 1017.01 1015.68 1015.69 1013.58 1013.38 1013.59 1013.69 1013.49 1013.49 1013.72 1014.41 1014.91 1015.20 1015.60 1016.00 1016.41 1016.71 1016.41 1016.20 1016.14 1015.90 1015.60 1015.19 1014.57 1013.85 1013.19 1012.66 1011.98 1011.12 1010.41 1009.70 1009.02 1008.24 1007.72
1014.63 1015.16 1015.41 1015.46 1015.39 1015.27 1014.99 1014.94 1015.21 1015.63 1014.94 1015.50 1013.44 1013.69 1013.20 1013.36 1013.00 1013.51 1013.62 1013.99 1014.35 1014.81 1015.20 1015.68 1016.18 1016.43 1016.47 1016.56 1016.55 1016.41 1016.15 1015.74 1015.31 1014.71 1014.13 1013.49 1012.91 1012.17 1011.48 1010.71 1010.03 1009.31 1008.46 1007.74
1013.84 1014.75 1015.39 1015.67 1015.72 1015.52 1015.40 1014.94 1014.95 1014.50 1014.04 1014.83 1013.00 1013.21 1011.29 1012.60 1012.79 1013.28 1013.85 1014.28 1014.77 1015.09 1015.57 1016.17 1016.52 1016.87 1017.07 1017.28 1016.87 1016.75 1016.39 1016.02 1015.64 1015.17 1014.64 1014.31 1013.48 1012.81 1012.07 1011.24 1010.45 1009.53 1008.69 1007.85
1012.98 1014.03 1014.97 1015.09 1015.40 1015.77 1015.38 1013.38 1013.59 1014.05 1013.64 1013.43 1013.39 1010.67 1011.11 1012.23 1012.98 1013.08 1013.53 1014.07 1014.66 1015.43 1016.13 1016.93 1017.41 1017.82 1017.47 1017.23 1017.45 1017.32 1016.98 1016.51 1016.01 1015.59 1015.20 1014.58 1013.97 1013.34 1012.68 1011.92 1011.05 1010.21 1009.39 1008.57
1012.38 1013.27 1014.26 1014.93 1015.21 1014.23 1012.48 1011.76 1012.28 1012.58 1012.10 1012.42 1011.85 1010.34 1011.18 1011.79 1012.41 1012.89 1013.44 1013.89 1014.88 1015.79 1016.89 1017.44 1017.98 1017.90 1017.79 1017.39 1017.48 1017.55 1017.29 1016.92 1016.54 1016.03 1015.48 1014.94 1014.28 1013.66 1012.99 1012.29 1011.60 1010.80 1010.03 1009.18
1011.61 1012.43 1013.46 1013.73 1013.69 1013.18 1011.73 1011.18 1011.18 1011.40 1010.40 1011.19 1010.76 1009.48 1010.91 1011.95 1013.02 1013.50 1014.01 1014.52 1015.38 1016.38 1017.08 1017.45 1018.05 1018.30 1018.35 1018.04 1017.88 1017.84 1017.56 1017.37 1017.09 1016.54 1015.93 1015.35 1014.68 1013.83 1013.14 1012.44 1011.73 1010.99 1010.25 1009.51
1011.67 1011.81 1012.83 1013.21 1012.85 1012.19 1009.47 1009.85 1009.98 1010.92 1010.39 1009.11 1009.83 1009.53 1010.32 1012.39 1013.38 1013.08 1014.59 1015.55 1016.33 1017.07 1017.57 1018.07 1018.41 1018.44 1018.59 1018.40 1018.28 1017.79 1017.95 1017.66 1017.47 1017.09 1016.37 1015.80 1015.02 1014.26 1013.54 1012.83 1011.97 1011.09 1010.50 1009.74
1011.83 1012.03 1011.59 1011.43 1011.67 1011.87 1010.17 1009.44 1009.70 1010.98 1009.19 1008.38 1009.11 1009.90 1011.04 1012.17 1012.20 1013.24 1014.75 1016.11 1016.88 1017.57 1018.11 1018.53 1018.67 1018.74 1018.89 1018.72 1018.72 1018.11 1018.21 1018.32 1017.92 1017.39 1016.81 1016.12 1015.24 1014.45 1013.79 1012.90 1012.02 1011.23 1010.38 1009.72
1010.15 1010.85 1010.97 1011.04 1010.17 1010.91 1009.07 1009.84 1009.37 1009.03 1009.05 1009.47 1010.20 1010.87 1011.78 1012.55 1013.63 1014.56 1015.54 1016.62 1017.48 1018.16 1018.63 1018.83 1018.91 1018.95 1018.91 1018.88 1018.71 1018.88 1018.81 1018.68 1018.17 1017.80 1017.25 1016.32 1015.33 1014.58 1013.75 1012.99 1011.91 1011.25 1010.44 1009.78
1009.38 1008.24 1008.65 1009.22 1008.51 1008.37 1008.56 1008.55 1008.50 1008.91 1009.76 1010.45 1011.04 1011.91 1012.74 1013.72 1014.77 1015.72 1016.65 1017.47 1018.21 1018.71 1019.09 1019.23 1019.21 1019.19 1019.32 1019.41 1019.57 1019.67 1019.53 1018.96 1018.48 1018.12 1017.41 1016.41 1015.41 1014.47 1013.68 1012.80 1011.87 1011.29 1010.49 1010.05
1008.74 1007.77 1008.43 1009.08 1008.03 1007.92 1008.53 1009.19 1009.46 1009.68 1010.26 1011.27 1011.74 1012.79 1013.64 1014.44 1015.52 1016.49 1017.40 1018.28 1018.98 1019.32 1019.58 1019.82 1019.96 1020.04 1020.29 1020.48 1020.49 1020.30 1019.75 1019.53 1019.24 1018.60 1017.62 1016.57 1015.57 1014.65 1013.72 1012.72 1011.96 1011.43 1010.81 1010.35
1008.33 1008.40 1008.38 1008.39 1008.30 1008.51 1008.94 1009.48 1009.98 1010.96 1011.43 1012.38 1013.07 1014.11 1014.55 1015.54 1016.50 1017.24 1018.19 1019.02 1019.54 1020.07 1020.49 1020.84 1021.05 1021.09 1020.97 1020.94 1020.92 1020.78 1020.43 1020.03 1019.72 1018.90 1018.00 1017.02 1016.08 1014.99 1013.82 1012.81 1011.96 1011.31 1010.86 1010.64
1008.16 1007.85 1008.47 1007.91 1007.37 1008.02 1009.12 1010.00 1011.08 1011.75 1012.56 1013.33 1014.21 1015.57 1015.95 1016.49 1017.33 1018.07 1019.10 1019.89 1020.56 1021.08 1021.36 1021.58 1021.81 1021.78 1021.57 1021.42 1021.35 1021.14 1021.01 1020.74 1019.96 1019.04 1018.24 1017.48 1016.52 1015.36 1014.19 1012.92 1011.74 1011.09 1010.53 1010.29
Wind_Speed
4 8 13 11 5 4 5 4 7 4 6 3 8 10 12 12 8 9 8 10 11 14 13 8 8 9 8 7 8 12 14 16 11 10 10 9 10 10 9 11 13 12 12 12
3 12 7 4 6 6 9 3 4 7 7 1 7 12 11 9 7 9 11 12 17 16 13 12 9 7 7 9 10 11 15 14 14 11 10 9 10 10 9 7 10 13 13 13
9 5 11 8 6 10 7 12 4 6 6 3 7 13 7 7 5 7 10 13 14 17 16 14 9 10 8 8 9 11 14 13 14 16 7 3 2 2 4 7 9 12 13 13
10 11 4 7 10 10 15 5 7 6 1 5 4 10 5 6 10 8 12 8 13 15 12 12 9 8 8 8 5 7 9 11 12 14 11 13 13 12 12 11 10 10 13 14
6 6 11 12 8 7 6 6 10 7 2 4 2 5 6 4 5 11 10 9 11 12 9 9 7 7 0 3 3 2 6 6 9 9 14 12 13 11 9 8 10 12 11 14
9 2 7 9 7 8 5 4 2 4 2 9 8 6 5 6 6 5 7 7 6 4 2 1 4 7 4 3 5 6 5 3 6 7 12 14 15 14 9 9 9 10 9 10
10 19 8 3 6 4 8 8 1 2 5 9 3 8 14 4 13 8 8 7 6 2 7 7 6 6 6 8 7 6 7 6 5 5 7 12 14 13 14 13 10 11 9 9
11 7 16 9 9 9 9 11 7 9 5 4 4 10 9 11 10 11 9 7 4 5 6 6 6 4 5 7 8 7 7 7 7 5 6 8 12 10 11 13 11 10 11 11
8 9 1 7 6 12 7 12 8 3 2 1 6 8 9 11 11 9 6 6 7 7 6 7 6 6 7 8 8 7 7 6 7 8 6 6 7 11 13 15 13 11 13 10
4 2 6 10 7 6 8 9 7 1 6 6 6 6 11 6 5 9 5 8 7 4 4 7 7 7 7 7 7 9 9 8 7 7 6 6 6 7 9 11 15 14 14 14
4 4 3 8 14 16 6 6 5 5 6 6 2 7 9 13 11 9 7 7 9 6 6 6 6 6 5 5 7 7 8 9 10 10 9 7 7 7 7 9 12 13 14 13
10 2 4 12 2 6 13 16 15 7 7 4 2 9 3 4 4 6 7 7 7 7 7 5 6 6 7 7 8 8 7 8 8 11 9 9 9 8 8 9 10 10 12 13
15 5 2 7 4 2 13 16 7 4 3 11 5 12 0 2 6 3 6 7 6 6 5 5 6 6 6 6 6 6 7 9 10 10 10 10 8 7 8 9 10 10 11 11
19 4 13 15 6 8 9 11 17 13 8 12 12 23 6 1 3 3 4 5 6 5 5 4 5 4 2 3 5 7 8 8 9 10 9 9 10 10 10 10 10 10 9 10
12 14 15 11 3 2 4 14 17 17 26 11 25 16 14 10 14 7 6 5 5 3 2 4 3 4 5 6 5 7 7 9 10 10 10 11 12 12 11 11 11 11 9 8
12 6 14 4 8 5 3 8 10 19 23 16 27 18 16 8 7 5 6 7 7 6 2 4 6 5 4 5 8 9 9 10 9 10 10 10 12 13 13 13 13 13 11 10
17 8 4 14 7 4 7 22 14 8 8 16 18 31 4 5 8 10 9 9 9 6 4 4 3 4 4 6 7 9 9 9 9 11 12 13 14 15 15 16 14 14 14 14
14 13 4 4 7 15 18 9 17 18 20 16 18 24 7 6 10 5 4 6 7 7 4 3 3 4 4 5 7 8 8 9 11 11 13 13 12 13 12 12 14 15 13 12
14 14 7 6 9 3 7 9 9 12 22 18 25 28 18 7 6 6 4 3 6 6 4 4 2 2 4 5 5 5 8 8 10 11 12 13 12 12 12 12 13 12 11 11
4 6 10 3 8 13 20 8 10 6 17 17 21 26 21 10 10 7 8 5 6 6 4 4 3 3 5 5 5 5 7 7 9 11 12 12 11 10 12 12 12 9 9 10
9 7 15 11 4 7 6 4 9 10 12 7 7 5 9 10 7 8 11 6 5 4 4 4 5 4 5 5 5 5 6 8 9 10 11 11 11 11 10 10 9 9 9 8
15 12 7 6 4 11 9 3 17 6 2 5 4 3 5 11 10 9 9 7 6 5 3 4 4 5 6 8 9 8 7 9 9 10 11 11 11 9 9 9 8 9 8 8
7 9 8 10 10 5 7 7 5 5 6 5 7 5 10 13 7 8 7 6 5 4 3 4 4 5 5 7 7 8 9 10 11 10 10 11 11 10 9 9 9 8 7 7
5 4 5 5 9 7 8 1 2 3 5 5 6 7 6 8 9 7 6 5 4 3 4 4 5 4 5 5 8 6 8 9 10 11 11 10 10 10 10 7 5 6 6 6
5 7 6 4 2 4 1 2 6 5 9 10 8 4 8 9 7 7 6 5 4 4 3 3 3 4 5 5 7 7 8 7 8 9 10 10 8 9 9 8 7 6 5 3
6 8 9 10 8 6 5 9 7 10 7 8 10 5 6 6 8 7 6 4 4 3 2 3 3 5 5 5 7 6 6 5 7 9 7 8 8 9 9 9 8 10 11 8
Wind_Direction
193 204 210 206 223 220 155 187 230 266 241 259 256 256 259 257 257 262 269 265 269 264 264 247 247 242 256 228 208 211 194 204 190 194 196 206 211 213 216 215 211 203 203 200
168 227 219 223 200 219 232 209 255 286 283 257 282 278 251 248 232 234 246 257 259 263 266 268 265 264 242 239 220 208 209 200 198 198 206 205 208 222 216 214 217 213 205 203
211 199 186 204 207 214 233 224 191 236 319 290 314 282 222 245 250 256 254 250 261 254 259 258 247 250 254 247 230 215 215 209 204 209 198 186 117 115 189 215 220 220 214 209
237 225 175 196 217 195 230 195 218 246 247 251 30 288 247 241 270 264 257 265 258 258 249 248 233 241 244 259 275 228 232 212 205 204 198 201 207 209 221 220 222 221 214 218
215 178 220 229 207 188 220 167 205 221 189 350 181 279 273 277 263 259 259 264 265 251 239 242 247 243 266 56 36 309 247 220 216 208 210 205 215 221 226 217 218 215 215 216
223 198 206 202 179 181 158 124 113 59 107 254 222 188 239 228 221 248 272 225 288 19 18 153 100 87 77 48 42 40 40 267 238 212 219 217 220 219 216 218 216 221 216 215
207 232 249 180 183 154 208 143 128 304 212 238 247 197 253 263 260 232 262 247 307 94 99 104 88 54 39 26 21 17 22 360 342 260 228 227 229 231 228 224 220 222 220 214
202 213 217 202 204 197 199 185 162 199 203 235 143 226 253 236 259 259 251 250 190 171 137 117 93 68 32 17 17 12 6 344 342 333 280 248 237 234 231 234 233 230 227 222
188 235 204 192 179 160 177 200 174 117 349 108 222 284 292 255 256 262 278 154 180 186 138 89 73 39 32 22 14 7 353 332 324 315 311 289 268 243 242 240 237 234 233 230
210 240 211 201 158 210 186 157 175 209 177 235 258 264 240 309 262 254 251 198 194 174 113 80 55 43 31 27 10 6 359 343 329 325 310 301 295 285 272 255 247 239 238 235
203 166 307 129 207 187 162 200 209 163 164 193 239 255 216 235 252 240 250 198 156 137 81 75 68 44 36 24 15 6 0 348 342 339 332 315 302 287 276 272 266 253 247 238
191 177 199 208 343 233 212 212 199 199 219 225 179 257 281 184 70 74 96 134 108 109 103 75 56 37 23 10 12 5 353 346 341 330 324 318 310 306 301 290 277 272 262 244
176 201 143 346 316 213 209 217 201 187 104 214 160 260 207 92 98 128 129 108 117 120 93 73 57 43 26 15 359 345 349 344 334 330 325 323 321 317 311 302 300 292 276 256
172 161 211 214 214 144 208 202 214 213 219 229 223 243 283 309 201 210 47 133 144 146 123 96 64 44 9 12 0 352 347 344 334 330 330 335 335 329 323 314 306 298 290 278
170 216 214 224 141 127 204 201 198 207 228 211 245 241 230 240 257 180 196 176 160 164 91 87 62 25 18 2 356 354 347 344 337 339 343 345 335 337 333 334 327 312 300 285
183 238 208 225 208 183 202 224 217 220 228 231 250 265 243 221 260 191 194 198 204 210 173 40 27 23 21 352 5 350 346 342 343 345 347 340 346 343 341 339 334 329 322 314
185 174 129 238 176 155 242 232 212 216 212 215 235 239 233 211 212 243 257 208 203 162 113 60 33 346 5 19 2 348 338 338 353 354 350 349 346 343 342 337 334 336 330 321
197 196 182 196 139 218 236 231 200 205 229 216 241 255 231 198 215 206 217 184 145 134 120 79 0 354 1 22 7 342 347 354 352 353 349 343 338 337 334 333 335 332 329 324
203 191 213 200 201 289 285 197 172 172 244 212 227 249 249 182 132 221 157 124 132 134 134 109 39 352 356 21 358 342 357 355 353 349 343 335 330 330 331 329 326 322 319 320
202 213 207 159 210 196 232 181 157 106 266 198 213 238 235 143 213 217 155 127 110 107 89 67 20 27 22 8 343 5 351 350 349 340 333 324 317 319 322 319 317 312 306 303
193 209 228 218 175 273 242 174 124 139 241 188 197 221 154 190 218 130 122 102 102 96 82 51 35 32 10 5 347 9 345 351 333 331 324 317 317 312 306 308 311 310 311 307
181 188 199 202 153 255 167 71 174 197 14 146 113 104 102 113 109 108 109 117 113 111 75 44 29 16 13 12 4 352 345 339 331 329 317 315 316 313 304 311 318 317 316 316
203 188 183 190 209 172 209 202 181 158 156 166 128 120 135 129 130 132 131 127 122 101 69 29 23 9 15 17 4 338 333 337 336 326 315 313 314 311 308 310 319 325 329 330
255 163 175 112 238 211 187 197 149 133 115 118 114 125 132 129 135 122 124 128 125 91 62 22 10 0 347 352 336 321 331 338 331 321 318 316 315 314 310 311 304 309 326 331
188 132 168 263 291 46 322 159 135 97 105 102 74 100 116 119 113 117 118 114 97 78 43 31 2 336 322 329 321 319 333 338 324 318 316 317 316 312 311 304 303 296 287 309
198 179 179 218 200 162 163 157 143 139 128 120 125 108 73 98 117 116 108 95 86 69 51 13 330 309 300 310 303 305 316 325 327 322 319 315 312 314 307 315 311 295 280 275